www.pogodaiklimat.ru

Погода и климат >> Архив погоды >> Канада >> Baker Lake Airport


ПОГОДА в Baker Lake Airport

  • Прогноз погоды в Baker Lake Airport
  • Монитор погоды в Baker Lake Airport
  • Климат города

АРХИВ ПОГОДЫ в Baker Lake Airport

Время (UTC), дата Ветер
(напр.,м/с)
 
Видим.   Явления Облачность Т
(С)
Тd
(С)
f
(%)
Тe
(С)
Тes
(С)
Комфортность P
(гПа)
Po
(гПа)
Тmin
(С)
Tmax
(С)
R
(мм)
R24
(мм)
S
(см)
18 12.02 З 7 16 км ледяные иглы {снег} 9/3 600 м
[Sc Ac trans Ci fib]
-28.5 -32.5 68 -43 -43 опасность
обморожения
1000.1 997.6 -37.5 -26.6 1 19
21 12.02 С 1 12 км 10/10 600 м
[]
-29.1 -32.6 72 -30 -30 998.3 995.8
00 13.02 СЗ 1 9000 м слабый снег 10/10 1500 м
[Sc]
-28.6 -31.9 73 -33 -33 опасность
обморожения
996.2 993.7 -32.8 -27.4 0.2 19
03 13.02 В 5 16 км 10/10 1000 м
[]
-27.5 -30.6 75 -39 -39 опасность
обморожения
993.8 991.3
06 13.02 СВ 5 16 км слабый снег 10/10 1000 м
[Sc Ac trans]
-30.3 -33.9 71 -43 -43 опасность
обморожения
991.9 989.4 -32.8 -26.6 3 170
09 13.02 С 5 24 км 3/0 2000 м
[]
-34.1 -38.1 67 -47 -47 опасность
обморожения
991.7 989.2
12 13.02 СЗ 6 24 км слабый снег 10/10 1000 м
[Sc]
-34.7 -38.7 67 -49 -49 опасность
обморожения
991.8 989.3 -35.6 -26.6
15 13.02 С 3 30 км 9/0 2000 м
[]
-34.0 -38.0 67 -44 -44 опасность
обморожения
992.8 990.3
18 13.02 С 4 24 км слабый снег 5/5 300 м
[Sc]
-32.6 -37.0 65 -45 -44 опасность
обморожения
995.1 992.6 -35.6 -30.3 0.0 19
21 13.02 С 4 24 км 5/5 200 м
[]
-32.6 -37.0 65 -44 -44 опасность
обморожения
998.3 995.8
00 14.02 С 9 24 км позёмок {снег} 1/1 300 м
[Sc]
-36.4 -40.8 64 -54 -54 опасность
обморожения
1002.1 999.5 -36.4 -31.6 0.0 19
03 14.02 С 8 24 км 1/1 300 м
[]
-38.2 -42.8 62 -56 -56 опасность
обморожения
1005.3 1002.7
06 14.02 С 9 24 км позёмок {снег} ясно -39.8 -44.3 62 -59 -59 опасность
обморожения
1008.5 1005.9 -39.8 -30.3 0.0 51
09 14.02 СЗ 12 16 км ясно -39.4 -43.8 63 -61 -61 опасность
обморожения
1010.6 1008.0
12 14.02 СЗ 12 24 км позёмок 3/0
[]
-40.3 -44.5 64 -62 -62 опасность
обморожения
1011.9 1009.3 -41.6 -30.3 0.0 19
15 14.02 З 10 4000 м 5/5 1500 м
[]
-38.5 -42.8 64 -58 -58 опасность
обморожения
1012.3 1009.7
18 14.02 З 9 9000 м ледяные иглы {снег} 6/3 1500 м
[Sc Ac trans]
-38.4 -43.1 61 -57 -57 опасность
обморожения
1012.1 1009.5 -41.6 -38.1 0.0 19
21 14.02 З 11 1600 м 8/8 100 м
[]
-36.2 -40.5 64 -56 -56 опасность
обморожения
1009.1 1006.5
00 15.02 З 13 1200 м ледяные иглы {снег} 9/4 100 м
[Sc Ac As]
-34.6 -38.7 66 -55 -55 опасность
обморожения
1004.8 1002.2 -41.6 -34.6 0.0 19
03 15.02 З 9 3200 м 8/8 1500 м
[]
-35.4 -39.5 66 -53 -53 опасность
обморожения
1004.4 1001.8
06 15.02 З 7 16 км ледяные иглы 9/9 1000 м
[Sc]
-36.8 -41.0 65 -54 -54 опасность
обморожения
1002.7 1000.1 -41.6 -34.3 0.0 12
09 15.02 З 7 24 км 3/3 600 м
[]
-38.5 -42.8 64 -56 -56 опасность
обморожения
1002.0 999.4
12 15.02 24 км ледяные иглы {снег} н/о -40.1 -44.5 63 -59 -59 опасность
обморожения
1002.4 999.8 -40.5 -34.3 19
15 15.02 СЗ 11 16 км 8/8 200 м
[]
-39.2 -43.6 63 -60 -60 опасность
обморожения
1001.8 999.2
18 15.02 СЗ 3 30 км ледяные иглы {снег} 1/1 200 м
[Sc]
-38.2 -43.2 59 -49 -48 опасность
обморожения
1001.9 999.3 -40.5 -36.7 0.0 19
21 15.02 СЗ 4 30 км ясно -38.5 -43.4 60 -52 -52 опасность
обморожения
1002.5 999.9
00 16.02 З 3 30 км {снег} ясно -40.5 -45.1 61 -52 -52 опасность
обморожения
1003.0 1000.4 -40.8 -37.9 0.0 19
03 16.02 СЗ 6 24 км ясно -40.3 -44.7 62 -56 -56 опасность
обморожения
1003.0 1000.4
06 16.02 СЗ 4 24 км 5/0
[Ac trans]
-41.8 -46.3 61 -55 -55 опасность
обморожения
1002.2 999.6 -42.0 -36.7 0.0 141
09 16.02 СЗ 4 24 км 3/0
[]
-42.1 -46.5 62 -56 -56 опасность
обморожения
1001.2 998.6
12 16.02 штиль 0 24 км 8/0
[Ac trans]
-41.1 -45.2 64 -41 -41 опасность
обморожения
999.6 997.0 -42.2 -36.7 0.0 19
15 16.02 С 2 8000 м 8/8 300 м
[]
-42.0 -46.2 63 -50 -50 опасность
обморожения
998.2 995.6
18 16.02 С 2 24 км ледяные иглы {снег} 3/1 300 м
[Sc Cs]
-40.3 -45.0 60 -48 -47 опасность
обморожения
998.7 996.1 -42.5 -40.2 0.0 19
21 16.02 С 3 30 км 1/1 300 м
[]
-40.9 -46.0 58 -52 -51 опасность
обморожения
1000.0 997.4
00 17.02 С 4 30 км {снег} 1/1 1000 м
[Sc]
-42.9 -47.5 60 -56 -56 опасность
обморожения
1001.8 999.2 -43.3 -40.2 0.0 19
03 17.02 СЗ 5 24 км 9/9 1000 м
[]
-41.5 -46.2 60 -56 -56 опасность
обморожения
1003.0 1000.4
06 17.02 СЗ 6 24 км слабый снег 5/5 1000 м
[Sc]
-41.5 -46.2 60 -58 -58 опасность
обморожения
1004.0 1001.4 -43.3 -40.2 0.6 7
09 17.02 С 9 24 км 3/3 1500 м
[]
-42.6 -47.3 60 -62 -62 опасность
обморожения
1005.3 1002.7
12 17.02 СЗ 8 24 км ледяные иглы {снег} 3/1 1500 м
[Sc Ac trans]
-44.7 -49.4 59 -64 -64 опасность
обморожения
1006.8 1004.2 -44.7 -40.2 0.0 19
15 17.02 СЗ 10 40 км 1/0
[]
-44.6 -49.4 58 -66 -66 опасность
обморожения
1007.8 1005.2
18 17.02 С 7 40 км ледяные иглы {снег} ясно -43.4 -48.6 56 -62 -62 опасность
обморожения
1009.4 1006.8 -45.1 -41.3 0.0 19
21 17.02 СЗ 4 11 км ясно -42.1 -47.2 57 -56 -56 опасность
обморожения
1010.1 1007.5
00 18.02 СЗ 8 16 км ледяные иглы {снег} ясно -43.1 -47.8 60 -63 -63 опасность
обморожения
1011.4 1008.8 -45.1 -42.0 0.0 19
03 18.02 С 7 24 км 1/0
[]
-41.9 -46.5 61 -60 -60 опасность
обморожения
1011.7 1009.1
06 18.02 ЮЗ 2 24 км ледяные иглы {снег} 5/4 1500 м
[Sc Ac trans]
-41.1 -45.5 62 -51 -51 опасность
обморожения
1012.5 1009.9 -45.1 -40.7 0.0 221
09 18.02 СЗ 6 8000 м 3/3 1000 м
[]
-41.7 -46.1 62 -59 -59 опасность
обморожения
1012.7 1010.1
12 18.02 СЗ 9 9000 м ледяные иглы {снег} 3/3 600 м
[Cu Sc]
-40.5 -45.0 62 -60 -60 опасность
обморожения
1013.1 1010.5 -43.0 -40.7 0.0 19
15 18.02 СЗ 6 4000 м 1/0
[]
-40.5 -45.0 62 -57 -56 опасность
обморожения
1013.9 1011.3
18 18.02 С 7 4800 м ледяные иглы {снег} ясно -39.1 -43.8 61 -56 -56 опасность
обморожения
1014.2 1011.6 -43.4 -39.0 0.0 16
21 18.02 СЗ 6 11 км ясно -38.6 -43.5 60 -54 -54 опасность
обморожения
1014.3 1011.7
00 19.02 СЗ 9 16 км ледяные иглы {снег} 4/0
[Ci sp]
-39.7 -44.2 62 -59 -59 опасность
обморожения
1014.4 1011.8 -42.0 -38.5 0.0 19
03 19.02 СЗ 9 24 км 3/0
[]
-39.5 -44.0 62 -58 -58 опасность
обморожения
1014.7 1012.1
06 19.02 СЗ 7 24 км ледяные иглы {снег} 4/0
[Ac trans]
-39.1 -43.6 62 -56 -56 опасность
обморожения
1015.1 1012.5 -42.0 -38.1 0.0 101
09 19.02 СЗ 12 24 км 8/0
[]
-37.8 -42.1 64 -58 -58 опасность
обморожения
1015.0 1012.4
12 19.02 СЗ 13 24 км ледяные иглы {снег} 8/0
[Ac trans Ci fib]
-38.0 -42.3 64 -60 -60 опасность
обморожения
1015.8 1013.2 -40.1 -38.1 0.0 19
15 19.02 СЗ 13 1600 м 9/0
[]
-38.1 -42.5 63 -60 -60 опасность
обморожения
1016.6 1014.0

 

Местоположение метеостанции Baker Lake Airport (Канада): широта 64.30 долгота -96.06 высота над уровнем моря 18 м.

В архиве по умолчанию представлена погода в Baker Lake Airport за последнюю неделю. Архивные данные за месяц целиком и за предыдущие месяцы, начиная с января 2011 года, Вы можете получить, выбрав интересующий диапазон дат из раскрывающегося списка и нажав кнопку "Ввод!".

Внимание! Время в таблицах - всемирное. Для получения местного времени необходимо прибавить поправку, которая в Baker Lake Airport равна -6 ч.

Смотрите также архив погоды в соседних городах и на ближайших метеорологических станциях:

Погода в Baker Lake Climate (Канада) (4 км)
Погода в Back River MAPS (Канада) (199 км)
Погода в Rankin Inlet (Канада) (256 км)
Погода в Dubawnt Lake (Канада) (302 км)
Погода в Robertson Lake (Канада) (314 км)
Погода в Wager Bay (Канада) (357 км)
Погода в Arviat Climate (Канада) (370 км)
Погода в Arviat (Канада) (370 км)
Погода в Arviat Airport (Канада) (371 км)
Погода в Hanbury River ARS (Канада) (451 км)

Пояснения к столбцам:

Ветер - указаны скорость ветра в м/с - средняя за 10 мин, порывы в срок и между сроками (в фигурных скобках) и направление, откуда дует ветер: С - северный, СВ - северо-восточный, В - восточный, ЮВ - юго-восточный, Ю - южный, ЮЗ - юго-западный, З - западный, СЗ - северо-западный.
Видимость - горизонтальная дальность видимости в метрах или километрах. При видимости от 1 до 10 км при отсутствии осадков обычно наблюдается дымка, при ухудшении видимости до 1 км и менее - туман. В сухую погоду видимость может ухудшаться дымом, пылью или мглою.
Явления - указаны атмосферные явления, наблюдавшиеся в срок или в последний час перед сроком; фигурными скобками обозначены явления, наблюдавшиеся между сроками (за 1-3 часа до срока); квадратными скобками обозначены град или гололедные отложения с указанием их диаметра в мм.
Облачность - указаны через наклонную черту общая и нижняя облачность в баллах и высота нижней границы облаков в метрах; квадратными скобками обозначены формы облаков: Ci - перистые, Cs - перисто-слоистые, Cc - перисто-кучевые, Ac - высококучевые, As - высокослоистые, Sc - слоисто-кучевые, Ns - слоисто-дождевые, Cu - кучевые, Cb - кучево-дождевые. Подробнее классификацию облаков см. в Атласе облаков (PDF).
T - Температура воздуха - температура, измеренная на высоте 2 м над землей.
Td - Температура точки росы - температура, при понижении до которой содержащийся в воздухе водяной пар достигнет насыщения.
f - Относительная влажность воздуха - влажноcть воздуха, измеренная на высоте 2 м над землей.
Te - Эффективная температура - температура, которую ощущает одетый по сезону человек в тени. Характеристика душности погоды. При расчете учитывается влияние влажности воздуха и скорости ветра на теплоощущения человека.
Tes - Эффективная температура на солнце - температура, которую ощущает человек, с поправкой на солнечный нагрев. Характеристика знойности погоды. Зависит от высоты солнца над горизонтом, облачности и скорости ветра. Ночью, в пасмурную погоду, а также при ветре 12 м/с и более поправка равна нулю.
P - Атмосферное давление - приведенное к уровню моря атмосферное давление.
Po - Атмосферное давление - измеренное на уровне метеостанции атмосферное давление.
Tmin - Минимальная температура - минимум температуры воздуха на высоте 2 м над землей.
Tmax - Максимальная температура - максимум температуры воздуха на высоте 2 м над землей.
R - Количество осадков - Количество выпавших осадков за период времени, мм. При наведении курсора мыши на число - период времени, за который выпало указанное количество осадков.
R24 - Количество осадков - Количество выпавших осадков за 24 часа, мм.
S - Снежный покров - Высота снежного покрова, см. При наведении курсора мыши на число - состояние снежного покрова и степень покрытия местности в баллах.